AirNav   ATP
 
 434 users online  

UT46 Tooele Army Depot (South Area) Heliport
Tooele, Utah, USA

GOING TO TOOELE?


FAA INFORMATION EFFECTIVE 16 AUGUST 2018

Location

FAA Identifier: UT46
Lat/Long: 40-19-02.8040N / 112-18-30.8120W
40-19.046733N / 112-18.513533W
40.3174456 / -112.3085589
(estimated)
Elevation: 5355 ft. / 1632 m (estimated)
Variation: 14E (1990)
From city: 8 miles N of TOOELE, UT
Time zone: UTC -6 (UTC -7 during Standard Time)
Zip code: 84071

Heliport Operations

Heliport use: Private use. Permission required prior to landing
Activation date: 11/2002
Control tower: no
ARTCC: SALT LAKE CITY CENTER
FSS: CEDAR CITY FLIGHT SERVICE STATION
Attendance: UNATNDD
Wind indicator: yes
Segmented circle: no

Heliport Communications

WX AWOS-3 at TVY (18 nm N): 119.725 (435-882-6648)

Nearby radio navigation aids

VOR radial/distance  VOR name  Freq  Var
FFUr263/17.0FAIRFIELD VORTAC116.6016E
PVUr268/27.6PROVO VOR/DME108.4015E
TCHr189/35.3WASATCH VORTAC116.8016E

Heliport Services

Runway Information

Helipad H1

Dimensions: 75 x 75 ft. / 23 x 23 m
Surface: concrete
Runway edge lights: PERIMETER LIGHTS.
Traffic pattern: leftleft

Heliport Ownership and Management from official FAA records

Ownership: Privately-owned
Owner: UNITED STATES ARMY
CHIEF, FACILITIES ENGINEERING
TOOELE, UT 84074
Phone 435-833-2114
Manager: SDSTE-IO-E, TOOELE ARMY DEPOT
TOOELE, UT 84074
Phone 801-833-2114

Instrument Procedures

There are no published instrument procedures at UT46.

Some nearby airports with instrument procedures:

KTVY - Bolinder Field-Tooele Valley Airport (18 nm N)
U42 - South Valley Regional Airport (23 nm NE)
KPVU - Provo Municipal Airport (27 nm E)
KDPG - Michael Army Airfield (Dugway Proving Ground) (30 nm W)
KSLC - Salt Lake City International Airport (32 nm NE)
 
Loc | Ops | Rwys | IFR | FBO | Links
Com | Nav | Svcs | Stats | Notes

TAC Air
 
Area around UT46 (Tooele Army Depot (South Area) Heliport)
 
Road maps at: MapQuest Bing Google
 
Aerial photo
No photo
 
Sectional chart

 
Airport distance calculator
Flying to Tooele Army Depot (South Area) Heliport? Find the distance to fly.

From to UT46

Sunrise and sunset
Times for 22-Aug-2018
 Local
(UTC-6)
 Zulu
(UTC)
Morning civil twilight06:1912:19
Sunrise06:4812:48
Sunset20:1602:16
Evening civil twilight20:4502:45

Current date and time
Zulu (UTC)  22-Aug-2018 06:41:04
Local (UTC-6)  22-Aug-2018 00:41:04
 
METAR
KTVY 
18nm N 
220615Z AUTO 13011KT 10SM SCT020 SCT030 BKN120 18/15 A3011 RMK AO2 LTG DSNT NE AND E P0001
KU42 
23nm NE 
220615Z AUTO 21016G24KT 10SM BKN110 22/13 A3014 RMK AO1 T02200125
KPVU 
28nm E 
220556Z AUTO 21008KT 10SM CLR 18/14 A3012 RMK AO2 TSE06RAE05 SLP149 P0000 60022 T01830139 10278 20178 50005
KDPG 
30nm W 
212250Z 35008KT 15SM FEW130 SCT150 BKN190 BKN220 31/06 A2999 RMK SLP100 T03130056 LAST
KSLC 
32nm NE 
220554Z 14008KT 10SM BKN120 BKN210 22/13 A3006 RMK AO2 SLP125 60000 T02220133 10300 20217 55000
TAF
KPVU 
28nm E 
220542Z 2206/2306 14007KT P6SM SCT070 BKN100 FM221900 19010G18KT P6SM -SHRA SCT080 BKN100 FM230200 18009KT P6SM VCSH SCT080 BKN100
KSLC 
32nm NE 
220542Z 2206/2312 14009KT P6SM BKN110 FM221700 17010G18KT P6SM VCSH SCT080 BKN100 FM230300 15008KT P6SM SCT100
NOTAMs
Click for the latest NOTAMs
NOTAMs are issued by the DoD/FAA and will open in a separate window not controlled by AirNav.

 

 
 

Would you like to see your business listed on this page?

 If your business provides an interesting product or service to pilots, flight crews, aircraft, or users of the Tooele Army Depot (South Area) Heliport, you should consider listing it here.  To start the listing process, click on the button below
 
Add a business
 

Other Pages about Tooele Army Depot (South Area) Heliport

Update a link
 
Copyright © AirNav, LLC. All rights reserved. Privacy Policy  Contact